This is the latest recevied weather packets stored in our database for station/object IU2EVW-13. If no packets are shown the sender has not sent any weather packets the latest 10 day(s).
| Time | Temp. | Humidity | Pressure | Rain* | Wind** | Luminosity | Snow |
|---|---|---|---|---|---|---|---|
| 1777979992 | 11.67° C | 73% | 1015.4 hPa | - | - | - | - |
| 1777978790 | 11.67° C | 73% | 1015.5 hPa | - | - | - | - |
| 1777977589 | 11.11° C | 78% | 1015.6 hPa | - | - | - | - |
| 1777976387 | 11.67° C | 78% | 1015.6 hPa | - | - | - | - |
| 1777975185 | 11.11° C | 77% | 1015.8 hPa | - | - | - | - |
| 1777973983 | 10.56° C | 76% | 1015.6 hPa | - | - | - | - |
| 1777972782 | 10.56° C | 78% | 1015.6 hPa | - | - | - | - |
| 1777971581 | 10° C | 80% | 1015.6 hPa | - | - | - | - |
| 1777970379 | 10° C | 80% | 1015.6 hPa | - | - | - | - |
| 1777969178 | 9.44° C | 77% | 1015.5 hPa | - | - | - | - |
| 1777967977 | 10° C | 74% | 1015.4 hPa | - | - | - | - |
| 1777966775 | 10° C | 70% | 1015.2 hPa | - | - | - | - |
| 1777965573 | 10° C | 67% | 1015 hPa | - | - | - | - |
| 1777964372 | 10.56° C | 63% | 1014.7 hPa | - | - | - | - |
| 1777963171 | 10.56° C | 60% | 1014.8 hPa | - | - | - | - |
| 1777961969 | 11.11° C | 57% | 1014.5 hPa | - | - | - | - |
| 1777960768 | 11.67° C | 54% | 1014.5 hPa | - | - | - | - |
| 1777959567 | 11.11° C | 54% | 1014.1 hPa | - | - | - | - |
| 1777958365 | 11.11° C | 53% | 1013.9 hPa | - | - | - | - |
| 1777957164 | 11.11° C | 54% | 1014 hPa | - | - | - | - |
| 1777955962 | 11.11° C | 54% | 1014.2 hPa | - | - | - | - |
| 1777954761 | 11.11° C | 53% | 1014.1 hPa | - | - | - | - |
| 1777953560 | 11.11° C | 54% | 1014.1 hPa | - | - | - | - |
| 1777952358 | 11.11° C | 53% | 1014.5 hPa | - | - | - | - |
| 1777951157 | 10.56° C | 55% | 1014.8 hPa | - | - | - | - |
* Rain since midnight (hover to see other rain measurements)
** Current wind speed in m/s (hover to see current wind gust speed)